This demonstration page uses our WeatherBlox Daily Observations layout. Learn more.

Left ArrowRight Arrow

31.84235, -102.49876

Hourly Observations for August 8, 2015

Temp ( °F °C ) Dew Point ( °F °C ) Humidity (%) Winds ( mph kmh ) Pressure ( in mb ) Visibility ( mi km ) Precip ( " mm )
12:53 am 00:53 Clear 87 30.6 57 13.9 36 36 S 15 24 29.76 1008 10 16 0.00 0.00
1:53 am 01:53 Clear 85 29.4 58 14.4 40 40 S 13 20 29.75 1007 10 16 0.00 0.00
2:53 am 02:53 Clear 84 28.9 58 14.4 41 41 S 14 22 29.74 1007 10 16 0.00 0.00
3:53 am 03:53 Clear 82 27.8 59 15 46 46 SSE 10 17 29.74 1007 10 16 0.00 0.00
4:53 am 04:53 Clear 80 26.7 59 15 49 49 S 7 11 29.75 1007 10 16 0.00 0.00
5:53 am 05:53 Clear 80 26.7 60 15.6 51 51 S 10 17 29.75 1007 10 16 0.00 0.00
6:53 am 06:53 Clear 79 26.1 61 16.1 54 54 S 12 19 29.76 1008 10 16 0.00 0.00
7:53 am 07:53 Sunny 79 26.1 64 17.8 60 60 SSE 10 17 29.78 1008 10 16 0.00 0.00
8:53 am 08:53 Sunny 81 27.2 66 18.9 61 61 S 14 22 29.80 1009 10 16 0.00 0.00
9:53 am 09:53 Sunny 86 30 64 17.8 48 48 S 17 28 29.79 1009 10 16 0.00 0.00
10:53 am 10:53 Sunny 89 31.7 62 16.7 41 41 S 14 22 29.79 1009 10 16 0.00 0.00
11:53 am 11:53 Sunny 93 33.9 60 15.6 33 33 S 15 24 29.78 1009 10 16 0.00 0.00
12:53 pm 12:53 Sunny 96 35.6 59 15 29 29 S 15 24 29.77 1008 10 16 0.00 0.00
1:53 pm 13:53 Sunny 98 36.7 58 14.4 26 26 SSE 10 17 29.76 1008 10 16 0.00 0.00
2:53 pm 14:53 Sunny 100 37.8 57 13.9 24 24 S 9 15 29.74 1007 10 16 0.00 0.00
3:53 pm 15:53 Sunny 102 38.9 56 13.3 22 22 S 9 15 29.72 1007 10 16 0.00 0.00
4:53 pm 16:53 Sunny 103 39.4 55 12.8 20 20 S 16 26 29.71 1006 10 16 0.00 0.00
5:00 pm 17:00 Sunny 103 39.4 54 12.2 20 20 SW 12 19 29.56 1001 10 16 0.00 0.00
5:53 pm 17:53 Sunny 102 38.9 53 11.7 19 19 S 10 17 29.70 1006 10 16 0.00 0.00
6:53 pm 18:53 Sunny 102 38.9 55 12.8 21 21 SSE 16 26 29.68 1005 10 16 0.00 0.00
7:53 pm 19:53 Sunny 100 37.8 56 13.3 23 23 S 15 24 29.69 1005 10 16 0.00 0.00
8:45 pm 20:45 Mostly Clear 97 36.1 56 13.3 25 25 S 16 26 29.59 1002 10 16 0.00 0.00
8:53 pm 20:53 Clear 97 36.1 56 13.3 25 25 S 12 19 29.70 1006 10 16 0.00 0.00
9:53 pm 21:53 Clear 94 34.4 58 14.4 30 30 S 13 20 29.72 1007 10 16 0.00 0.00
10:53 pm 22:53 Clear 92 33.3 58 14.4 32 32 S 21 33 29.76 1008 10 16 0.00 0.00
11:53 pm 23:53 Clear 90 32.2 56 13.3 32 32 S 16 26 29.76 1008 10 16 0.00 0.00

Powered by AerisWeather